User: anonymous   Login
Location: Kott?ru
(16.6209°N, 80.6208°E)
Time: 03:08:34
(UTC+00:00)
Language:

Intelsat 5-1 Rocket - Orbit

View from above orbital plane
View from above orbital plane
View from above satellite
View from above satellite

Ground track
Ground track

The orbit data is extracted from the following two-line orbital elements,

1 12497U 81050B   20338.49905286  .00003765  00000-0  33760-3 0  9999
2 12497  23.9381  96.5120 3529042  30.6545 345.9522  8.26464010  5211
Epoch (UTC): 03 December 2020 11:58:38
Eccentricity: 0.3529042
inclination: 23.9381°
perigee height: 309 km
apogee height: 7602 km
right ascension of ascending node: 96.5120°
argument of perigee: 30.6545°
revolutions per day: 8.26464010
mean anomaly at epoch: 345.9522°
orbit number at epoch: 521

The dashed part of the orbit path shows where the satellite is in the earth's shadow,  

DLR